Location: Granada
(37.1830°N, 3.6000°W)
Time: 19:56:49
(UTC+02:00)

Iridium 70 - Visible Passes

Search period start: 26 July 2016 00:00
Search period end: 05 August 2016 00:00
Orbit: 776 x 779 km, 86.4° (Epoch: 26 July)

Date Brightness Start Highest point End Pass type
(mag) Time Alt. Az. Time Alt. Az. Time Alt. Az.
26 Jul 8.2 04:45:44 10° ESE 04:48:14 14° ENE 04:50:45 10° NE visible
26 Jul 5.6 06:23:13 10° SSW 06:28:21 59° W 06:33:31 10° N visible
27 Jul 5.7 05:49:39 10° S 05:54:50 73° E 06:00:02 10° N visible
28 Jul 6.9 05:16:40 10° SSE 05:21:26 37° E 05:26:12 10° NNE visible
29 Jul 7.8 04:44:26 10° SE 04:48:09 20° E 04:51:53 10° NE visible
29 Jul 6.0 06:23:39 10° SSW 06:28:31 40° W 06:33:25 10° NNW visible
30 Jul 8.4 04:14:22 10° E 04:14:59 10° ENE 04:15:37 10° ENE visible
30 Jul 5.4 05:50:24 14° S 05:54:55 77° W 06:00:10 10° N visible
31 Jul 6.1 05:17:27 16° SSE 05:21:28 56° E 05:26:33 10° NNE visible
01 Aug 7.2 04:44:28 14° SE 04:48:06 29° E 04:52:34 10° NNE visible
01 Aug 6.5 06:24:59 13° SW 06:28:44 27° W 06:33:10 10° NNW visible
02 Aug 8.0 04:11:51 10° ESE 04:14:53 16° E 04:17:54 10° NE visible
02 Aug 5.7 05:51:59 23° SSW 05:55:04 52° W 06:00:10 10° N visible
03 Aug 5.5 05:18:58 31° S 05:21:32 83° E 05:26:45 10° N visible
04 Aug 6.5 04:45:56 28° SE 04:48:07 43° E 04:53:01 10° NNE visible
04 Aug 7.0 06:26:26 14° WSW 06:29:00 19° WNW 06:32:39 10° NNW visible
